DLH33H EDDF-LSZH

Flight info

Callsign DLH33H
Flight time 0h 36m
Altitude 23000
Route ANEKI2L/18 ANEKI Y163 NEKLO Y171 INKAM T725 LAMGO T721 RILAX RILAX2A
Aircraft A320/M-SDE3FGHIRWY/LB1

Departure

Time 2026-05-04 16:40
Airport Frankfurt Main Airport (EDDF)

Arrival

Time 2026-05-04 17:16
Airport Zürich Airport (LSZH)
Time Latitude Longitude Altitude Speed Heading
2026-05-04 16:00 50.04706 8.56829 361 ft 0 kts 295°
2026-05-04 16:07 50.04808 8.56903 360 ft 0 kts 295°
2026-05-04 16:09 50.04806 8.56899 354 ft 0 kts 295°
2026-05-04 16:22 50.04800 8.56921 359 ft 2 kts 295°
2026-05-04 16:23 50.04779 8.56991 356 ft 2 kts 286°
2026-05-04 16:24 50.04799 8.57038 355 ft 0 kts 206°
2026-05-04 16:27 50.04796 8.57037 356 ft 0 kts 199°
2026-05-04 16:31 50.04630 8.56922 355 ft 13 kts 198°
2026-05-04 16:32 50.04404 8.56626 355 ft 29 kts 248°
2026-05-04 16:33 50.04255 8.56006 357 ft 30 kts 249°
2026-05-04 16:33 50.04113 8.55410 355 ft 26 kts 250°
2026-05-04 16:34 50.03987 8.54887 357 ft 23 kts 250°
2026-05-04 16:34 50.03924 8.54618 355 ft 30 kts 250°
2026-05-04 16:35 50.03717 8.53876 357 ft 25 kts 250°
2026-05-04 16:35 50.03532 8.53112 360 ft 24 kts 250°
2026-05-04 16:36 50.03470 8.52859 356 ft 25 kts 245°
2026-05-04 16:36 50.03432 8.52722 358 ft 0 kts 251°
2026-05-04 16:37 50.03421 8.52677 357 ft 16 kts 249°
2026-05-04 16:37 50.03339 8.52593 357 ft 2 kts 179°
2026-05-04 16:37 50.03338 8.52593 357 ft 0 kts 179°
2026-05-04 16:39 50.03160 8.52595 355 ft 49 kts 180°
2026-05-04 16:39 50.01534 8.52589 499 ft 154 kts 188°
2026-05-04 16:40 49.99409 8.52611 1906 ft 148 kts 184°
2026-05-04 16:40 49.97309 8.52749 3120 ft 157 kts 181°
2026-05-04 16:41 49.94960 8.52922 4034 ft 191 kts 181°
2026-05-04 16:41 49.90623 8.53160 5767 ft 222 kts 181°
2026-05-04 16:42 49.86060 8.53514 8620 ft 223 kts 180°
2026-05-04 16:43 49.82992 8.53820 10581 ft 219 kts 180°
2026-05-04 16:43 49.80005 8.54039 12426 ft 211 kts 181°
2026-05-04 16:43 49.78472 8.54138 12854 ft 233 kts 182°
2026-05-04 16:44 49.70542 8.53109 12983 ft 313 kts 187°
2026-05-04 16:45 49.66372 8.52581 13807 ft 286 kts 187°
2026-05-04 16:46 49.60690 8.51857 17042 ft 256 kts 188°
2026-05-04 16:46 49.57339 8.51417 19007 ft 237 kts 189°
2026-05-04 16:47 49.54548 8.51032 19879 ft 245 kts 189°
2026-05-04 16:47 49.51117 8.50579 21064 ft 250 kts 188°
2026-05-04 16:48 49.45839 8.49889 22844 ft 260 kts 188°
2026-05-04 16:48 49.43993 8.49640 22959 ft 280 kts 188°
2026-05-04 16:49 49.39762 8.49062 22972 ft 325 kts 187°
2026-05-04 16:49 49.35221 8.48483 22973 ft 327 kts 187°
2026-05-04 16:50 49.30670 8.47953 22976 ft 328 kts 182°
2026-05-04 16:50 49.26269 8.49853 22974 ft 340 kts 153°
2026-05-04 16:51 49.22280 8.53820 22967 ft 341 kts 151°
2026-05-04 16:51 49.20268 8.55765 22971 ft 341 kts 152°
2026-05-04 16:51 49.16270 8.59577 22970 ft 341 kts 152°
2026-05-04 16:52 49.12032 8.62716 22976 ft 337 kts 161°
2026-05-04 16:52 49.09866 8.64120 22967 ft 337 kts 160°
2026-05-04 16:53 49.05573 8.66910 22961 ft 337 kts 160°
2026-05-04 16:53 48.99088 8.71123 22963 ft 338 kts 160°
2026-05-04 16:54 48.96920 8.72530 22962 ft 337 kts 160°
2026-05-04 16:55 48.88165 8.77284 22950 ft 331 kts 179°
2026-05-04 16:55 48.83631 8.76564 22949 ft 328 kts 192°
2026-05-04 16:56 48.79132 8.75360 22957 ft 328 kts 192°
2026-05-04 16:56 48.72391 8.73578 22967 ft 327 kts 192°
2026-05-04 16:57 48.70150 8.72978 22970 ft 327 kts 192°
2026-05-04 16:57 48.65686 8.71782 22975 ft 327 kts 192°
2026-05-04 16:58 48.58906 8.69975 22973 ft 340 kts 192°
2026-05-04 16:58 48.56570 8.69355 22547 ft 341 kts 192°
2026-05-04 16:59 48.51870 8.68108 20591 ft 344 kts 192°
2026-05-04 17:00 48.42618 8.65668 17120 ft 330 kts 192°
2026-05-04 17:00 48.36076 8.63922 15285 ft 300 kts 193°
2026-05-04 17:01 48.32171 8.62738 14567 ft 273 kts 193°
2026-05-04 17:01 48.28548 8.61606 13905 ft 263 kts 193°
2026-05-04 17:02 48.24980 8.60509 13216 ft 261 kts 193°
2026-05-04 17:02 48.21427 8.59435 12551 ft 258 kts 192°
2026-05-04 17:03 48.19692 8.58912 12220 ft 257 kts 192°
2026-05-04 17:03 48.17940 8.58386 11896 ft 256 kts 192°
2026-05-04 17:03 48.14460 8.57349 11224 ft 254 kts 191°
2026-05-04 17:04 48.10992 8.56320 10542 ft 252 kts 191°
2026-05-04 17:04 48.07559 8.55300 9858 ft 250 kts 191°
2026-05-04 17:05 48.04166 8.54298 9131 ft 248 kts 191°
2026-05-04 17:05 48.00795 8.53298 8399 ft 247 kts 191°
2026-05-04 17:06 47.97435 8.52298 7674 ft 246 kts 191°
2026-05-04 17:06 47.95749 8.51799 7293 ft 246 kts 191°
2026-05-04 17:07 47.92313 8.50615 6960 ft 268 kts 195°
2026-05-04 17:07 47.91124 8.50107 6963 ft 268 kts 196°
2026-05-04 17:07 47.88730 8.49040 6948 ft 267 kts 197°
2026-05-04 17:07 47.86978 8.48258 6461 ft 268 kts 197°
2026-05-04 17:08 47.85177 8.47464 6219 ft 266 kts 197°
2026-05-04 17:08 47.81624 8.45920 5906 ft 262 kts 197°
2026-05-04 17:08 47.79918 8.45187 5786 ft 249 kts 197°
2026-05-04 17:09 47.78298 8.44491 5635 ft 237 kts 197°
2026-05-04 17:09 47.76706 8.43810 5497 ft 238 kts 198°
2026-05-04 17:09 47.75113 8.43125 5356 ft 239 kts 198°
2026-05-04 17:10 47.71908 8.41752 5093 ft 241 kts 198°
2026-05-04 17:10 47.67079 8.39686 4709 ft 241 kts 198°
2026-05-04 17:11 47.65502 8.39012 4602 ft 234 kts 198°
2026-05-04 17:11 47.63955 8.38356 4504 ft 228 kts 198°
2026-05-04 17:11 47.60964 8.37331 4315 ft 218 kts 177°
2026-05-04 17:12 47.59558 8.38067 4199 ft 215 kts 144°
2026-05-04 17:12 47.57543 8.40813 3890 ft 177 kts 138°
2026-05-04 17:13 47.55058 8.44227 3246 ft 161 kts 139°
2026-05-04 17:14 47.52585 8.47616 2613 ft 159 kts 139°
2026-05-04 17:14 47.51771 8.48727 2436 ft 157 kts 139°
2026-05-04 17:14 47.50255 8.50867 2049 ft 148 kts 141°
2026-05-04 17:15 47.49492 8.51906 1800 ft 149 kts 142°
2026-05-04 17:15 47.47944 8.53989 1416 ft 151 kts 142°
2026-05-04 17:16 47.46826 8.55487 1399 ft 57 kts 136°
2026-05-04 17:16 47.46393 8.55755 1396 ft 0 kts 152°
2026-05-04 17:17 47.46391 8.55757 1396 ft 0 kts 152°
2026-05-04 17:17 47.46325 8.55835 1406 ft 9 kts 137°
2026-05-04 17:18 47.46263 8.55920 1402 ft 18 kts 137°
2026-05-04 17:18 47.46014 8.56259 1405 ft 22 kts 137°
2026-05-04 17:19 47.45801 8.56292 1403 ft 0 kts 183°
2026-05-04 17:23 47.45799 8.56292 1400 ft 3 kts 184°
2026-05-04 17:24 47.45730 8.56280 1398 ft 15 kts 186°
2026-05-04 17:24 47.45614 8.56184 1399 ft 10 kts 271°
2026-05-04 17:25 47.45623 8.56071 1397 ft 12 kts 274°
2026-05-04 17:25 47.45651 8.55691 1400 ft 25 kts 274°
2026-05-04 17:26 47.45632 8.55343 1397 ft 13 kts 186°
2026-05-04 17:26 47.45410 8.55484 1402 ft 11 kts 155°
2026-05-04 17:27 47.45365 8.55516 1402 ft 0 kts 155°
2026-05-04 17:27 47.45269 8.55660 1397 ft 16 kts 96°
2026-05-04 17:28 47.45258 8.55833 1406 ft 3 kts 95°
2026-05-04 17:29 47.45161 8.55897 1397 ft 0 kts 186°
2026-05-04 17:41 47.45164 8.55898 1397 ft 2 kts 186°
2026-05-04 17:42 47.45180 8.55900 1408 ft 2 kts 186°
2026-05-04 17:42 47.45196 8.55903 1401 ft 2 kts 186°
2026-05-04 17:42 47.45213 8.55905 1405 ft 2 kts 185°
2026-05-04 17:42 47.45229 8.55907 1407 ft 2 kts 186°
2026-05-04 17:43 47.45245 8.55915 1408 ft 2 kts 236°
2026-05-04 17:43 47.45250 8.55938 1408 ft 2 kts 271°
2026-05-04 17:43 47.45248 8.55962 1402 ft 2 kts 275°
2026-05-04 17:43 47.45248 8.55969 1401 ft 0 kts 275°
2026-05-04 17:45 47.45248 8.55966 1401 ft 3 kts 275°
2026-05-04 17:45 47.45257 8.55841 1404 ft 17 kts 277°
2026-05-04 17:45 47.45268 8.55673 1397 ft 14 kts 275°
2026-05-04 17:45 47.45271 8.55554 1397 ft 13 kts 250°
2026-05-04 17:46 47.45184 8.55519 1402 ft 16 kts 163°
2026-05-04 17:46 47.45058 8.55604 1397 ft 22 kts 155°
2026-05-04 17:46 47.44951 8.55612 1402 ft 9 kts 234°
2026-05-04 17:46 47.44949 8.55607 1401 ft 0 kts 238°
2026-05-04 17:47 47.44949 8.55606 1401 ft 0 kts 238°
2026-05-04 17:47 47.44927 8.55548 1401 ft 20 kts 244°
2026-05-04 17:47 47.44924 8.55417 1399 ft 12 kts 335°
2026-05-04 17:48 47.44939 8.55407 1397 ft 0 kts 335°
2026-05-04 17:50 47.44987 8.55374 1404 ft 19 kts 335°
2026-05-04 17:50 47.45367 8.55107 1406 ft 99 kts 335°
2026-05-04 17:50 47.46178 8.54547 1441 ft 155 kts 333°
2026-05-04 17:51 47.47222 8.53849 1996 ft 169 kts 333°
2026-05-04 17:51 47.48310 8.53101 2647 ft 167 kts 332°
2026-05-04 17:51 47.49290 8.52410 3077 ft 159 kts 331°
2026-05-04 17:51 47.50338 8.51724 3496 ft 172 kts 335°
2026-05-04 17:52 47.51451 8.51089 4123 ft 171 kts 338°
2026-05-04 17:52 47.52596 8.50571 4795 ft 173 kts 347°
2026-05-04 17:52 47.53818 8.50444 5336 ft 181 kts
2026-05-04 17:52 47.55059 8.50957 5780 ft 192 kts 27°
2026-05-04 17:53 47.56167 8.52175 6284 ft 205 kts 49°
2026-05-04 17:53 47.56989 8.53954 6805 ft 215 kts 68°
2026-05-04 17:53 47.57364 8.56129 7344 ft 223 kts 91°
2026-05-04 17:53 47.57351 8.58460 8016 ft 228 kts 94°
2026-05-04 17:54 47.57321 8.60843 8570 ft 242 kts 94°
2026-05-04 17:54 47.57304 8.63353 9536 ft 240 kts 94°
2026-05-04 17:54 47.57308 8.65837 10386 ft 246 kts 93°
2026-05-04 17:54 47.57323 8.68406 11125 ft 251 kts 93°
2026-05-04 17:55 47.57347 8.71023 11947 ft 256 kts 93°
2026-05-04 17:55 47.57214 8.73676 12690 ft 263 kts 108°
2026-05-04 17:55 47.56326 8.76008 13366 ft 261 kts 143°
2026-05-04 17:55 47.54773 8.77278 14173 ft 256 kts 162°
2026-05-04 17:56 47.53134 8.78207 15159 ft 247 kts 162°
2026-05-04 17:56 47.51566 8.79102 16184 ft 237 kts 163°
2026-05-04 17:56 47.50033 8.79981 16990 ft 238 kts 163°
2026-05-04 17:56 47.48469 8.80891 17652 ft 244 kts 159°
2026-05-04 17:57 47.47118 8.82441 18359 ft 254 kts 131°
2026-05-04 17:57 47.46285 8.84805 18929 ft 266 kts 109°
2026-05-04 17:57 47.45909 8.87517 19476 ft 272 kts 105°
2026-05-04 17:57 47.45542 8.90280 20052 ft 275 kts 105°
2026-05-04 17:58 47.45154 8.93067 20642 ft 278 kts 106°
2026-05-04 17:58 47.44756 8.95864 21246 ft 280 kts 106°
2026-05-04 17:58 47.44352 8.98691 21840 ft 283 kts 106°
2026-05-04 17:58 47.43941 9.01554 22435 ft 286 kts 106°
2026-05-04 17:59 47.43529 9.04411 22902 ft 294 kts 106°
2026-05-04 17:59 47.43086 9.07462 23002 ft 316 kts 106°
2026-05-04 17:59 47.42086 9.14332 22999 ft 358 kts 103°